Time,TemperatureF,DewpointF,PressureIn,WindDirection,WindDirectionDegrees,WindSpeedMPH,WindSpeedGustMPH,Humidity,HourlyPrecipIn,Conditions,Clouds,dailyrainin,SoftwareType,DateUTC
2014-02-06 00:09:00,-5.5,-12.0,30.47,NW,314,1.0,8.0,74,0.00,,,0.00,weatherlink.com 1.10,2014-02-06 06:09:00,
2014-02-06 00:24:00,-5.7,-12.0,30.48,NNW,329,3.0,8.0,75,0.00,,,0.00,weatherlink.com 1.10,2014-02-06 06:24:00,
2014-02-06 00:39:00,-5.9,-12.0,30.48,NW,323,2.0,5.0,75,0.00,,,0.00,weatherlink.com 1.10,2014-02-06 06:39:00,
2014-02-06 00:54:00,-6.1,-12.0,30.47,WNW,288,0.0,7.0,75,0.00,,,0.00,weatherlink.com 1.10,2014-02-06 06:54:00,
2014-02-06 01:09:00,-6.4,-12.0,30.47,WNW,284,0.0,7.0,75,0.00,,,0.00,weatherlink.com 1.10,2014-02-06 07:09:00,
2014-02-06 01:39:00,-6.9,-13.0,30.46,West,277,0.0,7.0,75,0.00,,,0.00,weatherlink.com 1.10,2014-02-06 07:39:00,
2014-02-06 02:10:00,-7.4,-14.0,30.46,WNW,302,1.0,8.0,74,0.00,,,0.00,weatherlink.com 1.10,2014-02-06 08:10:00,
2014-02-06 02:25:00,-7.7,-14.0,30.45,NW,309,5.0,7.0,74,0.00,,,0.00,weatherlink.com 1.10,2014-02-06 08:25:00,
2014-02-06 02:40:00,-7.8,-14.0,30.45,NW,319,1.0,6.0,75,0.00,,,0.00,weatherlink.com 1.10,2014-02-06 08:40:00,
2014-02-06 02:55:00,-7.9,-14.0,30.45,West,275,6.0,8.0,75,0.00,,,0.00,weatherlink.com 1.10,2014-02-06 08:55:00,
2014-02-06 03:10:00,-8.0,-14.0,30.44,West,269,1.0,6.0,76,0.00,,,0.00,weatherlink.com 1.10,2014-02-06 09:10:00,
2014-02-06 03:25:00,-7.8,-13.0,30.44,West,279,3.0,10.0,77,0.00,,,0.00,weatherlink.com 1.10,2014-02-06 09:25:00,
2014-02-06 03:40:00,-8.0,-13.0,30.44,West,281,1.0,7.0,77,0.00,,,0.00,weatherlink.com 1.10,2014-02-06 09:40:00,
2014-02-06 03:55:00,-8.0,-13.0,30.44,West,274,0.0,8.0,77,0.00,,,0.00,weatherlink.com 1.10,2014-02-06 09:55:00,
2014-02-06 04:10:00,-8.1,-14.0,30.45,West,273,2.0,7.0,77,0.00,,,0.00,weatherlink.com 1.10,2014-02-06 10:10:00,
2014-02-06 04:25:00,-8.2,-14.0,30.45,West,276,3.0,7.0,77,0.00,,,0.00,weatherlink.com 1.10,2014-02-06 10:25:00,
2014-02-06 04:40:00,-8.4,-14.0,30.45,West,275,0.0,8.0,77,0.00,,,0.00,weatherlink.com 1.10,2014-02-06 10:40:00,
2014-02-06 04:55:00,-8.5,-14.0,30.44,WNW,290,3.0,10.0,77,0.00,,,0.00,weatherlink.com 1.10,2014-02-06 10:55:00,
2014-02-06 05:10:00,-8.7,-14.0,30.44,West,275,3.0,12.0,77,0.00,,,0.00,weatherlink.com 1.10,2014-02-06 11:10:00,
2014-02-06 05:25:00,-8.9,-14.0,30.44,WNW,299,2.0,8.0,77,0.00,,,0.00,weatherlink.com 1.10,2014-02-06 11:25:00,
2014-02-06 05:41:00,-8.9,-14.0,30.44,WNW,298,4.0,8.0,77,0.00,,,0.00,weatherlink.com 1.10,2014-02-06 11:41:00,
2014-02-06 05:56:00,-9.1,-15.0,30.43,NW,314,3.0,5.0,76,0.00,,,0.00,weatherlink.com 1.10,2014-02-06 11:56:00,
2014-02-06 06:11:00,-9.4,-15.0,30.43,West,279,0.0,6.0,76,0.00,,,0.00,weatherlink.com 1.10,2014-02-06 12:11:00,
2014-02-06 06:26:00,-9.6,-15.0,30.42,NW,307,0.0,4.0,76,0.00,,,0.00,weatherlink.com 1.10,2014-02-06 12:26:00,
2014-02-06 06:41:00,-9.7,-15.0,30.42,WNW,303,0.0,5.0,76,0.00,,,0.00,weatherlink.com 1.10,2014-02-06 12:41:00,
2014-02-06 06:56:00,-9.7,-15.0,30.43,West,269,3.0,6.0,76,0.00,,,0.00,weatherlink.com 1.10,2014-02-06 12:56:00,
2014-02-06 07:11:00,-9.7,-15.0,30.43,West,264,1.0,8.0,76,0.00,,,0.00,weatherlink.com 1.10,2014-02-06 13:11:00,
2014-02-06 07:26:00,-9.6,-15.0,30.43,West,267,3.0,8.0,76,0.00,,,0.00,weatherlink.com 1.10,2014-02-06 13:26:00,
2014-02-06 07:41:00,-9.6,-15.0,30.43,West,271,7.0,8.0,77,0.00,,,0.00,weatherlink.com 1.10,2014-02-06 13:41:00,
2014-02-06 07:56:00,-9.4,-15.0,30.44,West,277,1.0,9.0,77,0.00,,,0.00,weatherlink.com 1.10,2014-02-06 13:56:00,
2014-02-06 08:11:00,-8.9,-14.0,30.44,West,279,3.0,9.0,77,0.00,,,0.00,weatherlink.com 1.10,2014-02-06 14:11:00,
2014-02-06 08:26:00,-8.3,-14.0,30.44,WNW,284,6.0,12.0,76,0.00,,,0.00,weatherlink.com 1.10,2014-02-06 14:26:00,
2014-02-06 08:41:00,-7.9,-14.0,30.45,West,264,1.0,10.0,75,0.00,,,0.00,weatherlink.com 1.10,2014-02-06 14:41:00,
2014-02-06 08:57:00,-7.4,-13.0,30.45,West,279,2.0,10.0,75,0.00,,,0.00,weatherlink.com 1.10,2014-02-06 14:57:00,
2014-02-06 09:12:00,-6.8,-13.0,30.45,WNW,282,1.0,9.0,74,0.00,,,0.00,weatherlink.com 1.10,2014-02-06 15:12:00,
2014-02-06 09:27:00,-5.4,-12.0,30.44,West,270,4.0,12.0,73,0.00,,,0.00,weatherlink.com 1.10,2014-02-06 15:27:00,
2014-02-06 09:42:00,-4.4,-11.0,30.44,NNW,331,10.0,12.0,73,0.00,,,0.00,weatherlink.com 1.10,2014-02-06 15:42:00,